Tracking 35331 objects as of 16-Sep-2026
HD Live streaming from Space Station
objects crossing your sky now

STARLINK-30568

Track STARLINK-30568 now!
10-day predictions
STARLINK-30568 is classified as:


NORAD ID: 58051
Int'l Code: 2023-158A
Launch date: October 13, 2023
Source: United States (US)
Launch site: AIR FORCE EASTERN TEST RANGE (AFETR)
Your satellite tracking list
Your tracking list is empty




NASA's NSSDC Master Catalog

Two Line Element Set (TLE):
1 58051U 23158A   26258.82313171  .00002282  00000-0  92428-4 0  9990
2 58051  43.0048  33.6837 0001270 255.4781 104.5930 15.27576005162630
Source of the keplerian elements: AFSPC